| time (UTC) | temp F | wind direction | speed MPH | gust MPH | rain 1hr in | rain 24hr in | rain mn in | humidity % | barometer mb |
| 20260502194038 | 74 | 0.0 | 3.0 | 0.00 | 0.34 | 0.02 | 47 | 1021.5 | |
| 20260502193536 | 74 | 0.0 | 3.0 | 0.00 | 0.34 | 0.02 | 45 | 1021.5 | |
| 20260502193035 | 74 | 0.0 | 3.0 | 0.00 | 0.34 | 0.02 | 49 | 1021.5 | |
| 20260502192531 | 74 | 13 | 1.0 | 3.0 | 0.00 | 0.34 | 0.02 | 46 | 1021.5 |
| 20260502192029 | 74 | 0.0 | 1.0 | 0.00 | 0.34 | 0.02 | 48 | 1021.6 | |
| 20260502191527 | 73 | 0.0 | 1.0 | 0.00 | 0.34 | 0.02 | 53 | 1021.6 | |
| 20260502191024 | 73 | 0.0 | 5.0 | 0.00 | 0.34 | 0.02 | 45 | 1021.6 | |
| 20260502190521 | 73 | 0.0 | 5.0 | 0.00 | 0.34 | 0.02 | 45 | 1021.6 | |
| 20260502190019 | 73 | 0.0 | 3.0 | 0.00 | 0.34 | 0.02 | 51 | 1021.6 | |
| 20260502185517 | 73 | 0.0 | 6.0 | 0.00 | 0.70 | 0.02 | 48 | 1021.6 | |
| 20260502185014 | 73 | 0.0 | 6.0 | 0.00 | 0.70 | 0.02 | 48 | 1021.7 | |
| 20260502184511 | 73 | 0.0 | 3.0 | 0.00 | 0.70 | 0.02 | 51 | 1021.8 | |
| 20260502184009 | 72 | 0.0 | 3.0 | 0.00 | 0.70 | 0.02 | 51 | 1021.7 | |
| 20260502183507 | 72 | 0.0 | 3.0 | 0.00 | 0.70 | 0.02 | 53 | 1021.8 | |
| 20260502182501 | 71 | 15 | 1.0 | 5.0 | 0.00 | 0.70 | 0.02 | 53 | 1022.0 |
| 20260502181959 | 71 | 0.0 | 5.0 | 0.00 | 0.70 | 0.02 | 54 | 1022.1 | |
| 20260502181457 | 71 | 16 | 1.0 | 5.0 | 0.01 | 0.70 | 0.02 | 54 | 1022.3 |
| 20260502180954 | 71 | 0.0 | 4.0 | 0.01 | 0.70 | 0.02 | 58 | 1022.4 | |
| 20260502180451 | 71 | 0.0 | 5.0 | 0.01 | 0.70 | 0.02 | 60 | 1022.5 | |
| 20260502170421 | 68 | 0.0 | 4.0 | 0.00 | 0.69 | 0.01 | 61 | 1023.3 | |
| 20260502163908 | 67 | 0.0 | 6.0 | 0.00 | 0.69 | 0.01 | 61 | 1023.4 | |
| 20260502163405 | 67 | 49 | 1.0 | 6.0 | 0.00 | 0.69 | 0.01 | 62 | 1023.4 |
| 20260502162903 | 67 | 0.0 | 4.0 | 0.00 | 0.69 | 0.01 | 63 | 1023.4 | |
| 20260502162401 | 66 | 0.0 | 4.0 | 0.00 | 0.69 | 0.01 | 62 | 1023.4 | |
| 20260502161858 | 66 | 0.0 | 2.0 | 0.00 | 0.69 | 0.01 | 65 | 1023.5 | |
| 20260502161355 | 65 | 0.0 | 4.0 | 0.00 | 0.69 | 0.01 | 62 | 1023.5 | |
| 20260502160853 | 65 | 1.0 | 4.0 | 0.00 | 0.69 | 0.01 | 61 | 1023.6 | |
| 20260502160351 | 65 | 0.0 | 2.0 | 0.00 | 0.69 | 0.01 | 62 | 1023.6 | |
| 20260502152329 | 62 | 51 | 1.0 | 2.0 | 0.00 | 0.92 | 0.01 | 71 | 1023.5 |
| 20260502151829 | 62 | 0.0 | 3.0 | 0.00 | 0.92 | 0.01 | 71 | 1023.4 | |
| 20260502151325 | 61 | 0.0 | 5.0 | 0.00 | 0.92 | 0.01 | 71 | 1023.4 | |
| 20260502150822 | 61 | 0.0 | 5.0 | 0.00 | 0.92 | 0.01 | 72 | 1023.4 | |
| 20260502150319 | 61 | 0.0 | 3.0 | 0.00 | 0.92 | 0.01 | 73 | 1023.4 | |
| 20260502130722 | 50 | 0.0 | 2.0 | 0.00 | 1.36 | 0.01 | 94 | 1022.3 | |
| 20260502130218 | 50 | 0.0 | 2.0 | 0.00 | 1.36 | 0.01 | 94 | 1022.3 | |
| 20260502123706 | 48 | 0.0 | 0.0 | 0.00 | 1.37 | 0.01 | 95 | 1021.8 | |
| 20260502123202 | 48 | 0.0 | 0.0 | 0.00 | 1.37 | 0.01 | 95 | 1021.8 | |
| 20260502122701 | 48 | 0.0 | 0.0 | 0.00 | 1.37 | 0.01 | 95 | 1021.7 | |
| 20260502122158 | 48 | 0.0 | 0.0 | 0.00 | 1.37 | 0.01 | 95 | 1021.6 | |
| 20260502121656 | 48 | 0.0 | 0.0 | 0.00 | 1.37 | 0.01 | 95 | 1021.5 | |
| 20260502121152 | 48 | 0.0 | 0.0 | 0.00 | 1.37 | 0.01 | 95 | 1021.4 | |
| 20260502120651 | 47 | 0.0 | 0.0 | 0.00 | 1.37 | 0.01 | 95 | 1021.4 | |
| 20260502120148 | 47 | 0.0 | 0.0 | 0.00 | 1.37 | 0.01 | 95 | 1021.3 | |
| 20260502115648 | 47 | 0.0 | 0.0 | 0.00 | 1.55 | 0.01 | 94 | 1021.1 | |
| 20260502115142 | 47 | 0.0 | 0.0 | 0.00 | 1.55 | 0.01 | 94 | 1021.1 | |
| 20260502114641 | 47 | 0.0 | 0.0 | 0.00 | 1.55 | 0.01 | 94 | 1020.9 | |
| 20260502114138 | 47 | 0.0 | 0.0 | 0.00 | 1.55 | 0.01 | 94 | 1020.8 | |
| 20260502113636 | 48 | 0.0 | 0.0 | 0.00 | 1.55 | 0.01 | 94 | 1020.8 | |
| 20260502113132 | 48 | 0.0 | 0.0 | 0.00 | 1.55 | 0.01 | 94 | 1020.8 | |
| 20260502112631 | 48 | 0.0 | 0.0 | 0.00 | 1.55 | 0.01 | 94 | 1020.8 | |
| 20260502112128 | 48 | 0.0 | 0.0 | 0.00 | 1.55 | 0.01 | 94 | 1020.7 | |
| 20260502111626 | 48 | 0.0 | 0.0 | 0.00 | 1.55 | 0.01 | 94 | 1020.6 | |
| 20260502111122 | 48 | 0.0 | 0.0 | 0.00 | 1.55 | 0.01 | 95 | 1020.5 | |
| 20260502110621 | 48 | 0.0 | 0.0 | 0.00 | 1.55 | 0.01 | 95 | 1020.4 | |
| 20260502110118 | 48 | 0.0 | 0.0 | 0.00 | 1.55 | 0.01 | 94 | 1020.3 | |
| 20260502105616 | 48 | 0.0 | 0.0 | 0.00 | 1.70 | 0.01 | 94 | 1020.1 | |
| 20260502105112 | 48 | 0.0 | 0.0 | 0.00 | 1.70 | 0.01 | 94 | 1020.1 | |
| 20260502104610 | 48 | 0.0 | 0.0 | 0.00 | 1.70 | 0.01 | 94 | 1019.9 | |
| 20260502104108 | 48 | 0.0 | 0.0 | 0.00 | 1.70 | 0.01 | 94 | 1019.8 | |
| 20260502103605 | 48 | 0.0 | 0.0 | 0.00 | 1.70 | 0.01 | 94 | 1019.5 | |
| 20260502103102 | 48 | 0.0 | 0.0 | 0.00 | 1.70 | 0.01 | 94 | 1019.5 | |
| 20260502102600 | 48 | 0.0 | 0.0 | 0.00 | 1.70 | 0.01 | 94 | 1019.4 | |
| 20260502102058 | 48 | 0.0 | 0.0 | 0.00 | 1.70 | 0.01 | 94 | 1019.4 | |
| 20260502101557 | 48 | 0.0 | 0.0 | 0.00 | 1.70 | 0.01 | 94 | 1019.4 | |
| 20260502101052 | 48 | 0.0 | 0.0 | 0.00 | 1.70 | 0.01 | 94 | 1019.4 | |
| 20260502100550 | 48 | 0.0 | 0.0 | 0.00 | 1.70 | 0.01 | 94 | 1019.3 | |
| 20260502091525 | 48 | 0.0 | 0.0 | 0.00 | 1.72 | 0.01 | 95 | 1019.3 | |
| 20260502091023 | 48 | 0.0 | 0.0 | 0.00 | 1.72 | 0.01 | 95 | 1019.3 | |
| 20260502090520 | 48 | 0.0 | 0.0 | 0.00 | 1.72 | 0.01 | 95 | 1019.2 | |
| 20260502071424 | 50 | 0.0 | 0.0 | 0.00 | 1.80 | 0.00 | 95 | 1019.0 | |
| 20260502070920 | 50 | 0.0 | 0.0 | 0.00 | 1.80 | 0.00 | 95 | 1019.0 | |
| 20260502070419 | 50 | 0.0 | 0.0 | 0.00 | 1.80 | 0.00 | 95 | 1019.0 | |
| 20260502065916 | 50 | 0.0 | 0.0 | 0.00 | 1.81 | 0.00 | 95 | 1019.1 | |
| 20260502065414 | 50 | 0.0 | 0.0 | 0.00 | 1.81 | 0.00 | 95 | 1019.1 | |
| 20260502064910 | 50 | 0.0 | 0.0 | 0.00 | 1.81 | 0.00 | 95 | 1019.1 | |
| 20260502064409 | 50 | 0.0 | 0.0 | 0.00 | 1.81 | 0.00 | 95 | 1019.0 | |
| 20260502063906 | 50 | 0.0 | 0.0 | 0.00 | 1.81 | 0.00 | 95 | 1019.0 | |
| 20260502063403 | 50 | 0.0 | 0.0 | 0.00 | 1.81 | 0.00 | 95 | 1018.9 | |
| 20260502062900 | 50 | 0.0 | 0.0 | 0.00 | 1.81 | 0.00 | 95 | 1018.9 | |
| 20260502062358 | 50 | 0.0 | 0.0 | 0.00 | 1.81 | 0.00 | 94 | 1019.0 | |
| 20260502061856 | 50 | 0.0 | 0.0 | 0.00 | 1.81 | 0.00 | 94 | 1019.0 | |
| 20260502060850 | 51 | 0.0 | 0.0 | 0.00 | 1.81 | 0.00 | 94 | 1018.8 | |
| 20260502060348 | 51 | 0.0 | 0.0 | 0.00 | 1.81 | 0.00 | 94 | 1018.8 | |
| 20260502055846 | 51 | 0.0 | 0.0 | 0.00 | 1.87 | 0.00 | 94 | 1018.8 | |
| 20260502055343 | 51 | 0.0 | 0.0 | 0.00 | 1.87 | 0.00 | 94 | 1018.9 | |
| 20260502054840 | 51 | 0.0 | 0.0 | 0.00 | 1.87 | 0.00 | 94 | 1019.0 | |
| 20260502054338 | 51 | 0.0 | 0.0 | 0.00 | 1.87 | 0.00 | 94 | 1018.9 | |
| 20260502053836 | 51 | 0.0 | 0.0 | 0.00 | 1.87 | 0.00 | 94 | 1019.1 | |
| 20260502053333 | 51 | 0.0 | 0.0 | 0.00 | 1.87 | 0.00 | 94 | 1019.1 | |
| 20260502052830 | 51 | 0.0 | 0.0 | 0.00 | 1.87 | 0.00 | 94 | 1019.0 | |
| 20260502052328 | 51 | 0.0 | 0.0 | 0.00 | 1.87 | 0.00 | 94 | 1018.9 | |
| 20260502051826 | 51 | 0.0 | 0.0 | 0.00 | 1.87 | 0.00 | 94 | 1018.9 | |
| 20260502051323 | 51 | 0.0 | 0.0 | 0.00 | 1.87 | 0.00 | 94 | 1018.8 | |
| 20260502050820 | 52 | 0.0 | 0.0 | 0.00 | 1.87 | 0.00 | 94 | 1018.9 | |
| 20260502050318 | 52 | 0.0 | 0.0 | 0.00 | 1.87 | 0.00 | 94 | 1018.8 | |
| 20260502045815 | 52 | 0.0 | 0.0 | 0.00 | 1.88 | 1.87 | 94 | 1018.7 | |
| 20260502045313 | 52 | 0.0 | 0.0 | 0.00 | 1.88 | 1.87 | 94 | 1018.6 | |
| 20260502044809 | 52 | 0.0 | 0.0 | 0.00 | 1.88 | 1.87 | 94 | 1018.6 | |
| 20260502044308 | 52 | 0.0 | 0.0 | 0.00 | 1.88 | 1.87 | 94 | 1018.7 | |
| 20260502043805 | 52 | 0.0 | 0.0 | 0.00 | 1.88 | 1.87 | 94 | 1018.7 | |
| 20260502043303 | 52 | 0.0 | 0.0 | 0.00 | 1.88 | 1.87 | 94 | 1018.7 | |
| 20260502042759 | 53 | 0.0 | 0.0 | 0.00 | 1.88 | 1.87 | 94 | 1018.7 | |
| 20260502042257 | 53 | 0.0 | 0.0 | 0.00 | 1.88 | 1.87 | 94 | 1018.5 | |
| 20260502041755 | 53 | 0.0 | 0.0 | 0.00 | 1.88 | 1.87 | 94 | 1018.4 | |
| 20260502041252 | 53 | 0.0 | 0.0 | 0.00 | 1.88 | 1.87 | 94 | 1018.5 | |
| 20260502040641 | 53 | 0.0 | 0.0 | 0.00 | 1.88 | 1.87 | 94 | 1018.6 | |
| 20260502040139 | 53 | 0.0 | 0.0 | 0.00 | 1.88 | 1.87 | 94 | 1018.6 | |
| 20260502035637 | 53 | 0.0 | 0.0 | 0.00 | 2.04 | 1.87 | 94 | 1018.6 | |
| 20260502035135 | 53 | 0.0 | 0.0 | 0.00 | 2.04 | 1.87 | 94 | 1018.7 | |
| 20260502034631 | 53 | 0.0 | 0.0 | 0.00 | 2.04 | 1.87 | 94 | 1018.7 | |
| 20260502034129 | 53 | 0.0 | 0.0 | 0.00 | 2.04 | 1.87 | 94 | 1018.7 | |
| 20260502033627 | 53 | 0.0 | 0.0 | 0.00 | 2.04 | 1.87 | 94 | 1018.7 | |
| 20260502033125 | 53 | 0.0 | 0.0 | 0.00 | 2.04 | 1.87 | 94 | 1018.6 | |
| 20260502032621 | 53 | 0.0 | 0.0 | 0.00 | 2.04 | 1.87 | 94 | 1018.6 | |
| 20260502032119 | 53 | 0.0 | 0.0 | 0.00 | 2.04 | 1.87 | 94 | 1018.7 | |
| 20260502031617 | 53 | 0.0 | 0.0 | 0.00 | 2.04 | 1.87 | 94 | 1018.7 | |
| 20260502031115 | 53 | 0.0 | 0.0 | 0.00 | 2.04 | 1.87 | 94 | 1018.6 | |
| 20260502030611 | 53 | 0.0 | 0.0 | 0.00 | 2.04 | 1.87 | 94 | 1018.5 | |
| 20260502030109 | 53 | 0.0 | 1.0 | 0.00 | 2.04 | 1.87 | 94 | 1018.5 | |
| 20260502025607 | 53 | 0.0 | 1.0 | 0.00 | 2.10 | 1.87 | 94 | 1018.4 | |
| 20260502025105 | 53 | 0.0 | 1.0 | 0.00 | 2.10 | 1.87 | 94 | 1018.3 | |
| 20260502024601 | 53 | 0.0 | 1.0 | 0.00 | 2.10 | 1.87 | 94 | 1018.2 | |
| 20260502024059 | 53 | 0.0 | 0.0 | 0.00 | 2.10 | 1.87 | 94 | 1018.2 | |
| 20260502023557 | 53 | 0.0 | 0.0 | 0.00 | 2.10 | 1.87 | 94 | 1018.0 | |
| 20260502023055 | 53 | 0.0 | 0.0 | 0.00 | 2.10 | 1.87 | 94 | 1018.0 | |
| 20260502022551 | 53 | 0.0 | 0.0 | 0.00 | 2.10 | 1.87 | 94 | 1018.0 | |
| 20260502022049 | 53 | 0.0 | 0.0 | 0.00 | 2.10 | 1.87 | 94 | 1017.9 | |
| 20260502021547 | 53 | 0.0 | 0.0 | 0.00 | 2.10 | 1.87 | 94 | 1017.8 | |
| 20260502021045 | 53 | 0.0 | 0.0 | 0.00 | 2.10 | 1.87 | 94 | 1017.7 | |
| 20260502020541 | 53 | 0.0 | 0.0 | 0.00 | 2.10 | 1.87 | 94 | 1017.5 | |
| 20260502020039 | 53 | 0.0 | 0.0 | 0.00 | 2.10 | 1.87 | 94 | 1017.3 | |
| 20260502015537 | 53 | 0.0 | 0.0 | 0.00 | 2.10 | 1.87 | 94 | 1017.2 | |
| 20260502015035 | 53 | 0.0 | 0.0 | 0.00 | 2.10 | 1.87 | 94 | 1017.0 | |
| 20260502014531 | 53 | 0.0 | 1.0 | 0.00 | 2.10 | 1.87 | 94 | 1017.0 | |
| 20260502014029 | 53 | 0.0 | 2.0 | 0.00 | 2.10 | 1.87 | 94 | 1016.9 | |
| 20260502013527 | 53 | 0.0 | 2.0 | 0.00 | 2.10 | 1.87 | 94 | 1016.9 | |
| 20260502013025 | 53 | 0.0 | 2.0 | 0.00 | 2.10 | 1.87 | 94 | 1016.8 | |
| 20260502012521 | 53 | 0.0 | 1.0 | 0.00 | 2.10 | 1.87 | 94 | 1016.8 | |
| 20260502012019 | 53 | 0.0 | 0.0 | 0.00 | 2.10 | 1.87 | 94 | 1016.7 | |
| 20260502011515 | 53 | 0.0 | 0.0 | 0.00 | 2.10 | 1.87 | 94 | 1016.6 | |
| 20260502011013 | 53 | 0.0 | 0.0 | 0.00 | 2.10 | 1.87 | 94 | 1016.6 | |
| 20260502010511 | 53 | 0.0 | 3.0 | 0.00 | 2.10 | 1.87 | 94 | 1016.5 | |
| 20260502010009 | 53 | 0.0 | 3.0 | 0.00 | 2.10 | 1.87 | 94 | 1016.5 | |
| 20260502005505 | 53 | 0.0 | 0.0 | 0.00 | 2.10 | 1.87 | 94 | 1016.3 | |
| 20260502005003 | 53 | 0.0 | 0.0 | 0.00 | 2.10 | 1.87 | 94 | 1016.3 | |
| 20260502004501 | 53 | 0.0 | 2.0 | 0.00 | 2.10 | 1.87 | 94 | 1016.2 | |
| 20260502003959 | 53 | 0.0 | 4.0 | 0.00 | 2.10 | 1.87 | 94 | 1016.0 | |
| 20260502003455 | 53 | 0.0 | 2.0 | 0.00 | 2.10 | 1.87 | 94 | 1015.8 | |
| 20260502002953 | 53 | 0.0 | 3.0 | 0.00 | 2.10 | 1.87 | 94 | 1015.8 | |
| 20260502002451 | 53 | 0.0 | 3.0 | 0.00 | 2.10 | 1.87 | 94 | 1015.8 | |
| 20260502001949 | 54 | 0.0 | 3.0 | 0.00 | 2.10 | 1.87 | 94 | 1015.8 | |
| 20260502001445 | 54 | 0.0 | 4.0 | 0.00 | 2.10 | 1.87 | 94 | 1015.5 | |
| 20260502000943 | 54 | 0.0 | 4.0 | 0.00 | 2.10 | 1.87 | 95 | 1015.5 | |
| 20260502000441 | 54 | 0.0 | 6.0 | 0.00 | 2.10 | 1.87 | 94 | 1015.4 | |
| 20260501235939 | 54 | 7 | 1.0 | 6.0 | 0.00 | 2.23 | 1.87 | 95 | 1015.4 |
| 20260501235435 | 54 | 0.0 | 2.0 | 0.00 | 2.23 | 1.87 | 95 | 1015.5 | |
| 20260501234933 | 54 | 0.0 | 2.0 | 0.00 | 2.23 | 1.87 | 95 | 1015.6 | |
| 20260501234431 | 54 | 0.0 | 2.0 | 0.00 | 2.23 | 1.87 | 95 | 1015.5 | |
| 20260501233929 | 53 | 0.0 | 4.0 | 0.01 | 2.23 | 1.87 | 94 | 1015.5 | |
| 20260501233425 | 53 | 0.0 | 4.0 | 0.01 | 2.23 | 1.87 | 95 | 1015.4 | |
| 20260501232923 | 53 | 0.0 | 3.0 | 0.02 | 2.23 | 1.87 | 95 | 1015.4 | |
| 20260501232421 | 53 | 0.0 | 4.0 | 0.02 | 2.23 | 1.87 | 95 | 1015.5 | |
| 20260501231919 | 54 | 0.0 | 8.0 | 0.03 | 2.23 | 1.87 | 95 | 1015.3 | |
| 20260501231415 | 54 | 0.0 | 8.0 | 0.05 | 2.23 | 1.87 | 95 | 1015.0 | |
| 20260501230913 | 54 | 0.0 | 4.0 | 0.07 | 2.23 | 1.87 | 95 | 1015.1 | |
| 20260501230411 | 54 | 0.0 | 4.0 | 0.09 | 2.23 | 1.87 | 95 | 1014.9 | |
| 20260501225909 | 54 | 0.0 | 5.0 | 0.11 | 2.31 | 1.87 | 95 | 1014.8 | |
| 20260501225405 | 54 | 37 | 1.0 | 5.0 | 0.13 | 2.31 | 1.87 | 95 | 1014.8 |
| 20260501224903 | 54 | 0.0 | 4.0 | 0.17 | 2.31 | 1.87 | 95 | 1014.8 | |
| 20260501224359 | 55 | 0.0 | 3.0 | 0.20 | 2.31 | 1.87 | 95 | 1014.8 | |
| 20260501223857 | 55 | 0.0 | 3.0 | 0.20 | 2.30 | 1.86 | 95 | 1014.7 | |
| 20260501223355 | 55 | 0.0 | 4.0 | 0.21 | 2.30 | 1.86 | 95 | 1014.8 | |
| 20260501222853 | 54 | 0.0 | 4.0 | 0.20 | 2.29 | 1.85 | 95 | 1014.7 | |
| 20260501222349 | 54 | 0.0 | 3.0 | 0.20 | 2.29 | 1.85 | 95 | 1015.0 | |
| 20260501221847 | 55 | 0.0 | 3.0 | 0.18 | 2.27 | 1.83 | 95 | 1015.0 | |
| 20260501221345 | 55 | 0.0 | 4.0 | 0.17 | 2.26 | 1.82 | 95 | 1015.0 | |
| 20260501220843 | 55 | 0.0 | 4.0 | 0.15 | 2.24 | 1.80 | 95 | 1015.2 | |
| 20260501220339 | 55 | 0.0 | 8.0 | 0.12 | 2.21 | 1.77 | 95 | 1015.2 | |
| 20260501215837 | 55 | 0.0 | 10.0 | 0.10 | 2.20 | 1.75 | 94 | 1015.1 | |
| 20260501215335 | 55 | 9 | 2.0 | 10.0 | 0.08 | 2.18 | 1.73 | 95 | 1015.0 |
| 20260501214833 | 55 | 15 | 1.0 | 6.0 | 0.04 | 2.14 | 1.69 | 95 | 1014.9 |
| 20260501214329 | 55 | 0.0 | 3.0 | 0.02 | 2.12 | 1.67 | 95 | 1014.8 | |
| 20260501213827 | 55 | 0.0 | 3.0 | 0.01 | 2.11 | 1.66 | 95 | 1014.6 | |
| 20260501213325 | 55 | 0.0 | 2.0 | 0.00 | 2.10 | 1.65 | 95 | 1014.4 | |
| 20260501212823 | 55 | 0.0 | 3.0 | 0.00 | 2.10 | 1.65 | 95 | 1014.3 | |
| 20260501212319 | 55 | 0.0 | 4.0 | 0.01 | 2.10 | 1.65 | 95 | 1014.2 | |
| 20260501211817 | 55 | 0.0 | 4.0 | 0.01 | 2.10 | 1.65 | 95 | 1014.0 | |
| 20260501211315 | 55 | 10 | 1.0 | 12.0 | 0.01 | 2.10 | 1.65 | 95 | 1013.7 |
| 20260501210813 | 55 | 0.0 | 5.0 | 0.02 | 2.10 | 1.65 | 95 | 1013.5 | |
| 20260501210309 | 56 | 0.0 | 11.0 | 0.02 | 2.10 | 1.65 | 95 | 1013.1 | |
| 20260501205807 | 56 | 3 | 1.0 | 11.0 | 0.03 | 2.10 | 1.65 | 95 | 1013.0 |
| 20260501205306 | 56 | 0.0 | 8.0 | 0.03 | 2.10 | 1.65 | 95 | 1013.0 | |
| 20260501204803 | 56 | 0.0 | 9.0 | 0.04 | 2.10 | 1.65 | 95 | 1013.0 | |
| 20260501204259 | 56 | 355 | 1.0 | 9.0 | 0.05 | 2.10 | 1.65 | 95 | 1012.9 |
| 20260501203757 | 56 | 0.0 | 5.0 | 0.06 | 2.10 | 1.65 | 95 | 1012.6 | |
| 20260501203255 | 56 | 0.0 | 6.0 | 0.08 | 2.10 | 1.65 | 95 | 1012.6 | |
| 20260501202753 | 57 | 70 | 1.0 | 6.0 | 0.10 | 2.10 | 1.65 | 95 | 1012.7 |
| 20260501202249 | 57 | 0.0 | 6.0 | 0.09 | 2.09 | 1.64 | 95 | 1012.7 | |
| 20260501201747 | 57 | 0.0 | 4.0 | 0.09 | 2.09 | 1.64 | 95 | 1012.7 | |
| 20260501201245 | 57 | 0.0 | 5.0 | 0.09 | 2.09 | 1.64 | 95 | 1012.8 | |
| 20260501200741 | 57 | 0.0 | 5.0 | 0.08 | 2.08 | 1.63 | 95 | 1012.9 | |
| 20260501200239 | 57 | 0.0 | 7.0 | 0.08 | 2.08 | 1.63 | 95 | 1012.7 | |
| 20260501195737 | 57 | 0.0 | 7.0 | 0.08 | 2.07 | 1.62 | 95 | 1012.7 | |
| 20260501195233 | 57 | 0.0 | 4.0 | 0.07 | 2.06 | 1.61 | 95 | 1013.1 | |
| 20260501194731 | 57 | 0.0 | 4.0 | 0.07 | 2.06 | 1.61 | 95 | 1012.9 | |
| 20260501194229 | 57 | 0.0 | 3.0 | 0.06 | 2.05 | 1.60 | 95 | 1012.8 |